Temp
8 8 8 8 8 9 9 10 11 10 10 10 9 9 10 10 11 12 13 13 13 13 12 11 10 10 10 9 9 8 8 8 8 8 8 8 8 8 8 8 8 8 8 8 8 8 8 8 8
7 7 7 8 8 8 9 10 10 10 10 10 9 9 9 10 10 11 12 12 12 12 12 11 10 10 9 9 8 8 8 8 8 8 8 8 8 8 8 8 8 8 8 8 7 7 7 8 8
7 7 7 7 8 9 9 10 10 9 9 9 9 10 10 10 10 11 11 11 11 11 11 11 10 10 10 9 8 8 8 8 7 8 7 7 8 7 7 7 7 7 7 7 7 7 7 7 7
7 7 7 8 9 10 10 9 9 10 9 9 9 10 11 10 11 11 11 11 11 11 10 10 10 10 10 9 8 8 7 7 7 7 7 7 7 7 7 7 7 7 7 7 7 7 7 7 7
7 7 7 8 9 10 10 9 9 9 9 9 9 11 11 11 11 11 11 11 11 10 10 10 10 9 9 9 8 8 7 7 7 7 7 7 7 7 7 7 7 7 7 7 7 7 7 7 6
6 7 6 8 9 9 10 9 8 9 9 9 10 11 12 12 11 10 11 11 11 10 10 10 9 9 8 8 8 8 8 7 7 7 7 7 7 7 6 7 7 6 6 7 7 7 7 6 6
7 6 6 7 9 9 9 9 9 8 9 9 9 11 12 12 11 10 10 10 11 11 10 10 9 9 9 8 8 8 7 7 7 6 6 7 6 6 6 6 6 6 6 7 6 6 6 6 6
6 5 6 7 8 9 9 9 8 8 9 9 9 10 11 11 10 10 10 10 10 11 11 10 9 9 9 8 8 8 7 7 6 6 6 6 6 6 6 6 6 6 6 6 6 6 6 6 6
6 5 6 8 8 9 8 8 8 8 9 9 9 10 10 11 10 10 10 10 10 10 10 10 10 9 9 8 8 7 7 7 6 6 6 5 6 6 6 6 6 6 6 6 6 6 6 5 5
5 5 7 8 8 8 8 7 8 8 9 9 9 10 10 10 10 10 10 10 10 10 10 10 10 10 9 8 8 7 7 6 6 5 5 5 5 5 5 5 6 6 6 6 6 6 6 6 5
6 6 7 7 7 7 7 7 7 8 8 10 9 9 9 9 9 9 9 9 10 10 10 10 10 10 9 8 7 7 7 6 5 5 5 5 5 5 5 5 6 6 6 6 5 5 5 5 5
5 6 7 7 7 7 7 7 8 8 9 9 9 9 9 9 9 10 10 10 9 10 10 9 9 9 9 9 8 7 6 6 6 5 5 5 5 5 5 5 6 6 5 5 5 5 5 5 5
6 6 7 7 7 7 7 8 7 8 9 9 9 9 9 9 9 9 9 10 9 9 9 9 9 9 9 9 8 8 7 6 5 4 4 5 5 5 5 5 5 5 5 5 4 4 5 5 5
6 6 6 7 7 7 7 8 7 9 9 8 8 9 9 9 9 9 9 9 9 9 9 9 9 9 8 8 8 8 7 6 5 4 4 4 4 4 5 5 5 5 4 4 4 4 4 5 4
6 5 7 8 7 7 7 7 9 9 8 8 8 8 8 9 9 9 9 9 9 9 9 9 9 8 8 8 8 7 7 7 6 4 4 4 4 4 4 5 4 4 4 4 4 4 4 4 4
5 5 5 8 8 7 7 7 9 8 9 8 8 8 8 8 9 9 9 9 9 9 9 9 8 8 8 8 8 7 7 6 5 5 4 4 4 4 4 4 4 4 3 3 3 4 3 3 3
5 5 4 6 7 7 7 7 8 8 7 8 8 7 7 8 8 8 9 9 9 8 8 8 8 8 8 8 7 7 6 6 5 5 4 4 4 4 4 4 3 3 3 3 3 3 3 3 3
6 4 6 6 8 7 6 7 8 8 7 7 7 8 8 8 8 9 8 8 9 9 8 8 8 8 8 7 7 7 6 6 5 4 4 3 3 3 3 3 3 2 2 2 2 2 2 3 3
5 5 5 5 5 6 6 7 7 8 8 8 8 7 8 8 8 8 8 8 8 8 8 8 8 8 8 8 8 7 7 5 5 4 3 3 3 3 3 2 2 2 2 1 2 2 2 2 2
5 4 4 5 5 5 6 8 7 7 9 9 9 8 8 8 8 8 9 8 8 8 8 8 8 8 8 7 7 6 5 4 3 3 3 2 2 2 2 2 2 1 1 1 1 2 2 1 1
4 3 4 4 3 4 4 6 6 8 7 9 10 9 9 8 8 8 9 9 9 9 9 8 8 8 8 7 7 6 5 4 3 3 2 2 2 2 2 1 1 1 1 0 1 1 1 1 0
3 4 4 3 2 3 3 5 5 6 7 8 9 9 9 9 9 8 8 8 9 9 9 9 8 8 8 7 7 6 5 4 3 2 2 1 1 1 1 1 1 0 -0 -0 0 0 0 -0 0
4 2 3 3 2 2 2 2 6 6 6 7 9 8 7 7 8 8 9 8 8 8 8 9 8 7 7 7 6 5 5 4 3 1 1 0 0 0 0 -0 -2 -0 -1 -0 -0 -0 -0 -0 -0
2 2 2 2 1 0 3 2 5 5 6 6 7 7 8 8 7 7 7 7 7 7 8 8 8 8 7 7 6 5 4 4 3 2 0 -0 -1 -1 -1 -1 -1 -1 -1 -1 -1 -1 -0 -1 -1
1 1 1 1 1 2 4 2 5 6 6 5 6 7 7 7 7 7 7 7 7 7 7 8 8 8 8 6 5 5 5 2 1 1 1 -1 -0 -1 -1 -0 -1 -1 -1 -1 -1 -1 -1 -1 -1
3 1 2 3 4 4 3 3 5 4 4 5 5 6 6 7 7 7 6 6 6 7 7 7 7 7 6 5 4 4 3 1 1 2 0 -1 -1 -2 -2 -2 -1 -1 -1 -1 -1 -2 -2 -2 -2
1 1 3 3 3 1 3 3 3 4 4 4 4 4 5 5 6 6 7 6 7 7 7 7 7 7 6 5 4 4 2 0 0 1 0 -1 -2 -2 -2 -1 -2 -2 -2 -2 -2 -2 -2 -3 -3
2 2 1 1 1 2 3 3 4 4 3 3 2 3 3 4 4 5 5 6 6 6 5 5 6 6 5 4 3 2 1 -0 -0 -0 -1 -2 -3 -3 -2 -3 -3 -3 -3 -3 -3 -3 -3 -3 -3
1 0 1 1 1 2 3 3 4 3 3 3 2 2 2 2 2 2 3 3 4 4 3 3 4 5 6 5 3 1 1 -0 -1 -1 -2 -2 -4 -4 -4 -4 -3 -3 -3 -3 -3 -3 -3 -3 -4
2 2 1 2 1 0 3 3 2 2 0 0 1 1 1 1 1 1 1 1 2 2 1 2 2 1 2 3 1 -0 -0 -1 -2 -2 -2 -3 -3 -3 -4 -5 -4 -4 -4 -4 -4 -4 -4 -4 -4
Height
3138 3138 3139 3140 3146 3140 3137 3138 3138 3139 3139 3138 3138 3138 3140 3139 3139 3141 3137 3136 3136 3135 3136 3137 3139 3141 3144 3148 3151 3154 3156 3159 3162 3164 3166 3168 3169 3171 3171 3172 3172 3173 3174 3174 3174 3173 3173 3173 3172
3136 3136 3137 3136 3139 3137 3135 3136 3137 3137 3136 3135 3135 3136 3136 3136 3136 3136 3137 3135 3134 3134 3134 3134 3137 3139 3142 3145 3149 3152 3155 3157 3159 3162 3163 3165 3167 3168 3169 3170 3170 3171 3172 3172 3172 3172 3171 3170 3170
3135 3135 3136 3135 3132 3131 3133 3134 3135 3135 3134 3134 3134 3132 3132 3133 3134 3135 3135 3134 3132 3132 3132 3133 3136 3138 3140 3143 3147 3150 3153 3155 3157 3159 3161 3163 3165 3166 3167 3168 3169 3170 3171 3171 3171 3169 3168 3168 3166
3132 3133 3134 3131 3128 3128 3130 3131 3133 3133 3133 3132 3130 3130 3130 3130 3132 3132 3132 3132 3130 3130 3130 3132 3136 3138 3139 3141 3144 3147 3150 3152 3155 3157 3159 3161 3162 3164 3165 3166 3167 3169 3169 3169 3168 3167 3166 3165 3164
3129 3129 3128 3127 3125 3125 3127 3128 3129 3129 3128 3128 3126 3126 3127 3128 3129 3130 3130 3130 3129 3129 3129 3131 3133 3136 3138 3141 3144 3147 3149 3151 3153 3155 3157 3158 3160 3161 3162 3164 3165 3166 3166 3165 3165 3165 3164 3163 3161
3126 3125 3124 3122 3122 3122 3122 3124 3125 3125 3124 3123 3122 3121 3123 3125 3127 3128 3129 3128 3129 3128 3129 3130 3131 3133 3136 3139 3141 3144 3146 3148 3150 3153 3155 3157 3158 3159 3161 3162 3162 3163 3163 3162 3162 3162 3161 3160 3160
3120 3122 3118 3118 3117 3118 3119 3120 3120 3121 3120 3120 3118 3117 3120 3121 3125 3126 3126 3126 3127 3127 3128 3128 3128 3130 3133 3135 3138 3140 3142 3144 3146 3150 3152 3154 3155 3157 3158 3159 3160 3160 3160 3160 3160 3159 3159 3159 3158
3117 3117 3114 3112 3113 3112 3114 3116 3117 3117 3116 3116 3115 3114 3117 3119 3122 3123 3124 3124 3124 3125 3125 3126 3127 3129 3131 3133 3135 3136 3139 3142 3144 3146 3149 3151 3153 3154 3156 3157 3157 3158 3157 3158 3158 3157 3157 3156 3156
3113 3111 3107 3108 3110 3111 3111 3111 3112 3113 3113 3113 3112 3112 3113 3117 3118 3119 3120 3121 3122 3122 3123 3123 3124 3125 3127 3130 3132 3133 3136 3137 3140 3142 3145 3147 3149 3151 3153 3153 3154 3155 3155 3155 3155 3155 3155 3155 3153
3107 3104 3102 3105 3107 3106 3106 3107 3107 3108 3109 3111 3110 3110 3110 3112 3114 3116 3117 3118 3119 3120 3121 3122 3122 3122 3124 3125 3126 3129 3130 3133 3136 3139 3142 3144 3146 3148 3149 3150 3151 3151 3152 3152 3152 3152 3151 3151 3150
3101 3096 3101 3101 3101 3102 3100 3100 3101 3101 3101 3107 3108 3107 3106 3108 3109 3111 3113 3114 3116 3117 3118 3118 3119 3119 3120 3120 3122 3124 3127 3129 3131 3134 3137 3140 3142 3144 3146 3147 3147 3148 3148 3148 3148 3148 3147 3146 3145
3095 3093 3095 3095 3097 3095 3094 3093 3092 3093 3098 3101 3101 3102 3102 3102 3104 3107 3108 3110 3111 3113 3114 3115 3115 3116 3117 3118 3119 3121 3123 3125 3127 3129 3133 3136 3138 3140 3141 3142 3143 3144 3144 3145 3145 3144 3142 3141 3141
3087 3089 3090 3089 3089 3088 3087 3086 3087 3084 3092 3094 3094 3095 3096 3098 3099 3100 3102 3104 3106 3107 3109 3110 3111 3112 3113 3115 3117 3118 3120 3122 3123 3125 3128 3131 3133 3135 3136 3137 3138 3139 3140 3140 3140 3139 3138 3137 3136
3082 3081 3080 3081 3081 3079 3079 3080 3079 3080 3084 3085 3086 3088 3090 3091 3093 3094 3095 3098 3099 3101 3103 3104 3106 3107 3108 3111 3113 3115 3117 3118 3120 3122 3124 3126 3128 3130 3131 3132 3133 3134 3135 3136 3136 3136 3135 3133 3132
3076 3073 3073 3072 3072 3072 3073 3068 3068 3075 3074 3075 3078 3080 3082 3085 3085 3087 3089 3089 3091 3095 3096 3098 3100 3102 3103 3105 3106 3108 3110 3112 3114 3117 3119 3122 3124 3125 3126 3128 3129 3130 3131 3131 3131 3130 3130 3129 3128
3070 3067 3061 3062 3066 3066 3066 3056 3064 3066 3066 3065 3068 3070 3073 3076 3078 3081 3082 3084 3084 3087 3090 3092 3094 3096 3097 3099 3100 3101 3103 3105 3108 3111 3114 3117 3119 3120 3121 3122 3124 3125 3126 3126 3126 3125 3124 3124 3123
3062 3051 3053 3054 3059 3060 3058 3049 3054 3056 3057 3057 3059 3061 3063 3065 3067 3071 3075 3077 3078 3080 3083 3085 3088 3089 3090 3092 3094 3096 3097 3100 3102 3105 3107 3111 3113 3114 3116 3117 3118 3120 3120 3120 3119 3119 3118 3118 3117
3048 3048 3046 3047 3056 3051 3047 3039 3044 3049 3048 3048 3049 3051 3054 3056 3059 3063 3063 3067 3069 3071 3075 3077 3080 3082 3084 3085 3087 3089 3091 3093 3095 3098 3102 3104 3106 3108 3110 3112 3113 3114 3114 3114 3113 3113 3112 3112 3111
3049 3045 3039 3041 3045 3047 3040 3028 3032 3037 3037 3036 3039 3041 3042 3045 3052 3050 3052 3055 3060 3063 3065 3068 3072 3074 3076 3078 3079 3081 3083 3086 3089 3092 3094 3097 3099 3102 3104 3106 3108 3109 3109 3109 3108 3107 3107 3106 3106
3036 3033 3029 3032 3038 3040 3033 3011 3022 3022 3023 3028 3028 3030 3032 3036 3040 3042 3044 3046 3049 3053 3056 3058 3061 3065 3068 3070 3073 3074 3077 3080 3082 3084 3086 3089 3093 3096 3098 3099 3102 3103 3104 3103 3103 3102 3102 3101 3100
3020 3021 3026 3027 3031 3030 3029 2999 3011 3011 3009 3013 3016 3020 3021 3025 3029 3032 3034 3038 3040 3043 3047 3049 3052 3055 3058 3062 3065 3067 3069 3071 3074 3076 3080 3083 3085 3088 3090 3092 3095 3097 3097 3097 3097 3097 3096 3095 3094
3008 3012 3021 3023 3027 3023 3026 3000 3001 3003 3003 3001 3004 3008 3010 3012 3017 3020 3024 3026 3031 3036 3037 3040 3041 3045 3048 3053 3057 3060 3062 3067 3069 3072 3073 3076 3078 3080 3082 3085 3088 3091 3092 3092 3091 3090 3089 3090 3089
2998 3008 3012 3017 3018 3019 3014 3019 2970 2994 2995 2998 3001 3001 3002 3003 3005 3007 3010 3015 3020 3021 3026 3029 3030 3034 3037 3043 3047 3050 3051 3055 3057 3063 3065 3067 3069 3072 3074 3077 3081 3084 3087 3086 3085 3085 3084 3084 3084
3006 3009 3009 3010 3012 3011 2994 3009 2974 2989 2985 2985 2989 2989 2988 2990 2994 2998 3001 3002 3006 3009 3013 3017 3019 3023 3025 3032 3039 3042 3043 3047 3047 3049 3054 3054 3058 3064 3067 3068 3072 3075 3078 3080 3078 3079 3078 3079 3077
2997 3005 3004 3001 2994 2985 2989 2998 2971 2978 2979 2979 2983 2984 2983 2985 2988 2991 2993 2994 2997 2999 3001 3004 3008 3013 3017 3022 3029 3032 3035 3036 3039 3041 3044 3046 3050 3055 3059 3062 3066 3069 3072 3073 3072 3073 3074 3073 3072
2975 2987 2986 2976 2975 2977 2985 2979 2967 2967 2970 2971 2976 2980 2981 2982 2983 2985 2986 2986 2988 2991 2993 2995 2999 3002 3005 3011 3018 3022 3027 3027 3029 3031 3036 3039 3042 3047 3052 3056 3056 3060 3062 3065 3066 3066 3067 3067 3065
2971 2974 2965 2974 2973 2974 2968 2966 2966 2961 2960 2961 2964 2968 2971 2973 2976 2978 2978 2979 2980 2981 2983 2986 2990 2993 2996 3000 3006 3012 3017 3021 3023 3023 3026 3027 3032 3037 3042 3046 3048 3053 3054 3056 3058 3059 3061 3060 3059
2959 2964 2968 2968 2964 2963 2957 2958 2953 2952 2954 2954 2957 2959 2962 2963 2966 2970 2971 2971 2971 2971 2971 2975 2979 2983 2986 2989 2994 3001 3008 3010 3012 3012 3013 3016 3021 3026 3033 3038 3040 3045 3048 3049 3051 3052 3052 3053 3054
2950 2953 2951 2954 2955 2951 2948 2945 2943 2946 2947 2949 2951 2950 2952 2955 2958 2961 2961 2962 2963 2964 2965 2966 2970 2973 2975 2978 2983 2989 2995 2996 3001 3002 3000 3004 3011 3017 3024 3030 3035 3038 3042 3044 3042 3046 3046 3047 3049
2936 2933 2934 2936 2940 2943 2943 2938 2937 2942 2944 2945 2947 2947 2945 2948 2951 2956 2955 2956 2957 2959 2959 2963 2964 2967 2969 2968 2970 2976 2981 2988 2990 2991 2994 2999 3003 3011 3016 3023 3027 3032 3035 3038 3040 3038 3038 3041 3041
Wind_Speed
16 15 13 11 7 9 13 6 6 4 2 2 5 6 5 8 8 8 11 11 12 10 11 18 28 31 31 33 31 28 24 22 20 18 16 14 12 11 10 10 11 10 9 8 9 10 12 13 14
14 13 12 11 9 13 12 9 8 8 4 2 11 12 11 11 9 10 11 10 12 13 15 20 27 30 32 35 31 28 26 24 21 19 17 15 13 12 12 11 11 12 11 11 11 12 13 15 17
13 13 11 7 13 20 12 7 7 8 13 15 19 18 17 13 9 10 11 10 7 10 17 21 24 27 30 33 31 30 27 24 21 20 19 16 15 13 12 12 12 12 12 12 12 13 15 17 19
15 16 14 16 21 17 14 9 11 12 12 13 20 20 16 11 8 10 10 5 4 6 14 17 20 23 25 28 31 30 28 26 24 22 19 16 14 13 14 13 13 13 12 12 13 14 17 19 18
17 18 17 20 24 19 15 15 15 10 11 14 20 21 20 17 12 10 8 5 4 8 12 17 20 19 21 24 26 28 28 26 24 21 19 18 16 15 15 14 13 13 12 13 14 16 18 16 13
18 20 16 24 25 21 18 15 16 13 10 14 15 21 21 18 11 9 7 5 6 10 15 17 18 19 20 22 25 27 28 27 23 22 20 18 17 17 16 15 14 14 13 13 15 16 14 12 12
21 22 25 27 29 24 18 15 11 12 13 11 11 12 13 10 11 8 8 7 9 10 15 18 19 21 23 23 26 28 28 26 24 22 20 18 18 18 18 16 15 15 14 15 15 12 12 12 12
24 23 26 29 30 27 19 13 14 16 15 12 5 2 6 8 11 11 8 7 10 11 15 17 19 19 21 23 26 27 27 25 23 22 21 19 18 17 17 16 15 15 15 15 13 12 12 11 12
23 26 32 31 28 22 19 19 17 17 17 15 9 8 9 11 14 12 10 9 9 11 15 17 19 21 23 23 23 24 26 26 25 23 21 20 18 17 17 15 16 15 14 13 12 12 13 14 16
25 32 34 30 27 26 26 23 20 21 19 18 14 13 15 14 15 15 12 11 12 11 13 16 19 21 23 24 24 24 24 24 23 23 21 19 18 18 17 17 17 15 13 12 11 11 13 15 17
30 37 33 33 30 31 32 30 27 27 23 19 16 14 14 16 16 17 17 15 14 14 16 19 19 21 23 24 24 23 23 24 24 23 21 20 19 19 18 18 17 16 14 13 12 13 14 17 19
34 35 32 32 30 31 32 33 31 31 25 20 22 21 20 18 17 14 18 18 20 19 20 21 21 20 20 20 20 21 23 24 24 24 23 22 21 20 20 20 18 17 16 15 15 14 15 19 21
33 33 33 33 34 36 36 36 35 36 24 25 27 26 25 24 20 18 19 20 24 23 22 23 24 22 20 18 18 18 21 23 24 25 25 24 23 23 21 20 20 19 18 18 16 15 17 20 23
34 33 36 37 39 39 38 37 37 34 29 30 29 27 25 27 25 24 23 23 26 27 24 23 23 23 21 19 19 19 19 21 23 25 26 26 25 23 22 22 21 21 20 19 17 17 19 20 23
31 33 33 35 34 37 36 41 41 32 34 33 29 30 30 28 29 27 24 22 24 27 25 22 24 24 23 22 23 22 21 21 23 26 27 26 25 24 23 23 23 22 22 19 17 18 19 21 23
35 38 42 36 34 30 26 37 35 30 32 33 30 27 27 32 30 28 26 22 25 29 29 26 25 26 26 25 25 25 25 24 25 26 27 28 27 26 25 24 23 23 22 19 19 19 20 21 21
38 41 34 40 35 30 32 40 32 28 28 33 33 27 28 28 32 33 29 26 25 31 32 32 28 27 27 29 29 29 28 27 27 28 29 29 29 28 26 25 24 24 22 20 19 19 20 21 22
36 32 38 36 31 31 32 46 41 35 34 31 32 36 36 33 33 31 32 32 29 32 33 36 35 31 30 29 32 32 32 31 30 29 30 31 30 29 27 26 25 24 21 20 19 20 21 21 22
38 39 42 33 24 36 45 53 49 42 38 40 37 37 36 36 26 30 31 32 33 30 33 38 37 36 35 32 32 33 33 31 31 31 31 32 31 30 28 26 26 24 22 20 19 19 20 20 20
42 43 45 42 40 38 44 61 51 51 47 41 39 39 39 37 31 30 32 33 32 33 33 35 38 40 38 36 35 35 32 30 31 32 33 33 32 30 28 27 26 24 22 18 19 20 20 18 20
51 49 45 44 28 35 41 66 53 47 35 40 38 34 35 38 40 35 35 32 32 32 31 36 38 39 40 38 37 35 34 33 31 32 32 32 32 30 29 28 26 24 21 20 19 19 18 18 19
46 42 44 38 22 20 12 23 39 34 39 33 32 32 32 33 38 41 37 36 35 33 36 37 45 45 44 41 37 29 26 24 21 25 28 31 31 30 29 28 24 23 23 20 19 17 16 18 19
48 32 31 29 27 21 27 14 50 9 17 16 14 17 21 24 24 30 36 36 38 39 38 39 45 50 49 44 41 34 31 36 36 35 32 30 30 29 27 26 26 26 22 20 19 17 17 18 19
36 26 20 19 15 9 37 24 56 31 33 26 22 27 30 34 34 32 30 31 34 37 36 36 41 47 50 50 45 35 37 36 38 41 41 43 38 32 25 26 28 25 24 21 17 18 18 18 18
35 24 6 9 11 11 21 20 49 19 17 15 16 18 16 16 18 22 26 28 32 31 35 37 38 43 47 52 47 43 44 39 37 39 33 30 29 29 29 28 26 24 25 20 18 18 18 17 18
40 45 16 11 9 10 18 18 33 25 32 31 34 35 32 33 32 35 26 19 19 22 26 31 30 31 40 48 50 52 44 43 41 42 38 31 28 28 28 29 27 29 27 25 22 19 18 17 16
25 34 49 19 8 2 11 23 30 36 36 34 29 29 30 30 28 27 31 30 32 32 34 35 35 37 34 39 47 51 52 47 44 42 42 37 33 33 34 32 31 31 29 25 23 20 18 15 16
35 27 16 24 7 8 12 18 23 28 34 32 27 23 22 23 26 29 30 31 33 33 31 32 34 36 33 33 39 46 52 50 45 44 46 40 36 36 35 36 33 35 29 25 23 20 17 16 16
31 31 20 21 22 9 8 8 20 30 30 29 29 26 20 15 14 13 14 17 20 20 16 16 29 39 41 37 32 38 49 53 45 42 42 40 36 36 36 36 36 33 30 27 24 21 18 18 18
38 45 47 21 14 21 20 18 20 17 23 24 22 20 17 12 8 10 9 11 11 13 15 14 6 11 24 37 38 38 49 50 44 35 29 28 29 32 34 37 37 36 31 29 25 21 18 19 19
Wind_Direction
255 256 260 264 254 234 249 258 200 214 213 16 352 318 266 258 278 281 327 330 314 295 242 224 216 219 219 219 216 216 212 210 214 218 221 225 229 233 237 238 243 250 261 276 292 305 309 309 312
255 262 263 255 241 248 268 267 261 205 202 312 327 307 282 265 270 284 304 306 300 284 247 223 218 216 217 218 216 216 213 212 214 219 224 226 230 234 237 240 244 253 261 271 285 298 304 305 308
256 265 265 252 246 248 265 299 217 248 268 305 304 287 281 266 274 294 298 307 307 276 245 224 215 216 219 219 217 216 214 214 216 221 225 228 232 237 241 242 246 253 260 271 285 295 299 301 303
257 263 260 249 254 260 269 259 277 262 278 288 287 278 264 261 266 303 307 298 299 233 227 215 214 216 217 216 215 213 213 214 217 221 225 230 235 242 244 243 244 251 261 272 284 291 295 298 300
256 262 257 258 264 273 281 283 290 271 287 305 291 270 255 253 259 298 299 305 291 234 230 223 217 216 216 217 217 217 216 217 219 223 227 230 234 238 239 240 242 247 256 271 282 288 294 296 299
256 259 253 259 272 278 277 286 290 284 278 299 291 259 257 251 244 284 287 291 265 235 236 228 220 214 215 219 221 221 219 218 220 225 230 233 237 239 238 239 244 251 262 272 282 287 289 292 302
250 261 260 268 275 279 290 293 282 264 284 296 296 269 251 245 238 272 275 279 266 253 239 225 214 211 213 215 217 217 217 218 220 225 228 233 238 239 242 241 248 257 268 278 282 281 286 298 308
255 260 261 263 268 283 297 298 295 288 271 285 291 283 214 243 235 266 256 294 276 250 233 219 211 214 214 213 213 215 218 220 223 227 230 235 238 243 234 242 254 265 276 281 282 288 298 306 311
258 253 258 264 269 292 293 292 290 280 269 263 268 224 206 230 238 255 252 285 287 251 218 209 204 206 205 209 214 216 220 222 224 227 230 235 236 232 237 248 259 270 277 278 284 297 307 315 321
249 253 261 270 278 286 288 285 286 283 268 252 248 223 216 228 242 267 265 266 284 251 228 218 208 203 205 207 211 215 220 224 224 227 231 232 231 235 240 250 258 264 263 265 277 289 301 312 319
257 257 270 274 280 282 284 282 282 278 259 243 256 238 231 232 248 253 256 258 269 256 251 238 224 215 211 209 211 217 220 222 223 226 229 231 233 236 243 253 259 257 256 261 271 283 299 312 316
261 264 269 276 277 277 275 277 276 274 269 243 241 240 244 230 234 249 255 253 255 257 255 244 238 232 220 216 215 219 223 224 223 223 224 229 231 235 243 250 253 252 253 259 269 282 302 310 314
266 268 269 273 273 273 272 273 276 273 274 262 245 242 248 248 242 247 254 255 248 251 249 255 249 236 228 228 226 227 228 225 222 221 223 226 229 235 242 248 248 250 253 259 268 285 297 307 313
267 273 274 272 271 271 272 274 273 272 274 272 262 248 250 248 245 245 254 267 255 241 248 251 247 237 230 230 229 231 236 235 229 227 227 227 231 238 243 246 246 248 253 260 271 282 294 306 305
269 273 277 273 277 275 280 273 269 281 273 271 269 260 254 249 243 248 263 265 251 239 244 248 245 238 236 233 230 232 233 235 233 229 230 232 236 241 245 247 246 249 254 260 271 283 295 300 300
266 273 275 279 281 281 282 276 280 280 273 268 265 264 254 252 255 254 255 262 246 235 237 239 240 240 239 238 237 235 235 233 232 232 232 235 238 241 244 246 249 253 258 265 274 284 291 298 299
262 262 264 278 281 280 277 283 286 278 270 267 263 257 252 242 244 250 247 250 247 234 233 236 235 235 239 240 240 238 237 236 235 235 234 236 240 243 246 247 249 252 256 262 271 282 293 298 297
252 253 269 269 282 282 279 280 282 279 274 265 259 258 257 252 251 250 238 246 242 233 234 236 235 238 239 241 241 241 241 240 239 238 237 238 241 244 246 248 249 251 254 261 271 282 291 293 294
268 266 266 266 266 281 279 280 283 280 270 270 265 255 252 250 250 242 230 227 234 238 239 237 239 239 239 241 242 243 245 245 244 242 240 240 243 245 246 248 248 250 253 261 271 283 289 289 293
259 259 259 266 269 273 282 279 280 281 276 273 271 265 254 248 242 234 233 229 228 236 241 243 242 244 245 245 246 245 246 247 246 243 242 241 244 247 248 248 248 248 252 264 275 282 284 287 296
252 251 256 260 265 269 282 281 285 285 281 276 275 268 260 252 243 239 235 233 235 240 248 247 246 246 247 246 246 245 241 240 242 242 243 244 245 247 247 246 244 248 256 260 269 278 282 289 295
251 251 256 254 255 259 251 286 282 282 286 275 270 269 258 250 244 242 241 240 242 246 250 254 245 245 244 244 244 246 248 244 248 250 247 245 245 246 246 247 249 251 253 258 268 273 283 288 296
251 248 248 258 247 257 246 249 274 259 264 251 260 277 255 259 246 242 242 245 244 247 250 255 248 242 245 243 238 227 226 233 243 245 238 237 242 238 239 240 247 245 253 258 267 275 282 288 288
243 246 235 229 222 225 252 213 277 276 276 274 259 259 248 245 246 242 239 230 233 239 237 245 243 236 243 246 237 229 228 241 254 263 254 243 229 233 242 240 232 239 247 254 262 268 273 275 282
223 217 214 224 207 229 236 203 253 265 264 257 246 230 240 246 257 268 254 247 242 238 237 239 240 238 242 246 239 229 241 227 238 240 256 230 224 231 234 235 235 241 248 253 258 262 268 278 283
213 209 213 222 222 242 217 220 241 256 257 261 256 253 255 261 263 270 243 238 233 238 242 239 237 241 242 245 244 233 230 226 229 244 247 221 219 226 231 230 233 238 244 249 251 254 262 270 278
210 208 232 256 240 200 216 240 250 253 256 260 253 251 256 257 260 254 263 261 269 267 256 244 242 241 242 245 246 240 233 227 234 246 242 214 213 219 221 226 230 237 239 241 246 251 257 269 275
217 224 209 217 212 228 230 239 231 246 243 244 241 240 249 252 253 253 255 255 259 267 264 237 236 238 240 240 244 242 237 232 230 229 232 210 204 213 220 227 233 235 237 238 242 248 255 266 273
207 224 216 222 215 234 242 230 240 241 243 238 241 241 229 216 209 216 233 245 255 264 273 267 244 236 237 239 232 234 238 233 230 228 215 207 204 213 223 231 232 232 235 237 240 245 254 265 270
232 229 210 206 197 223 241 244 254 232 227 225 228 219 209 204 219 259 268 277 288 287 287 275 299 270 256 238 220 221 231 231 229 231 209 209 212 221 228 232 231 233 234 237 240 242 253 262 268